Weather History For Prescott AZ
This page updates 5 minutes after midnight. GMT -7
Station: KPRC0 Rows: 26
| Year | Date | Temp (°F) | Tmin (°F) | Tmax (°F) | RH% | Prcp | Snow | Wind | Gust | Pres | Sun | Cloud |
|---|---|---|---|---|---|---|---|---|---|---|---|---|
| 2000 | 2000-03-05 | 36.7 | 33.1 | 39.9 | 94 | — | — | 17.4 | — | 29.68 | — | 8 |
| 2001 | 2001-03-05 | 52.2 | 46.0 | 59.0 | 31 | — | — | 14.8 | — | 29.99 | — | 4 |
| 2002 | 2002-03-05 | 42.6 | 19.4 | 62.6 | 17 | — | — | 11.6 | — | 30.09 | — | 0 |
| 2003 | 2003-03-05 | 38.3 | — | — | 70 | — | — | 9.7 | — | 29.86 | — | 4 |
| 2004 | 2004-03-05 | 43.7 | 35.6 | 53.6 | 53 | — | — | 13.9 | — | 29.97 | — | 2 |
| 2005 | 2005-03-05 | 42.6 | 37.0 | 48.9 | 79 | — | — | 11.8 | — | 29.98 | — | 6 |
| 2006 | 2006-03-05 | 45.3 | 28.9 | 64.9 | 34 | 0.0 | — | 9.2 | — | 30.13 | — | 1 |
| 2007 | 2007-03-05 | 45.0 | 28.9 | 66.0 | 24 | 0.0 | — | 7.4 | — | 30.17 | — | — |
| 2008 | 2008-03-05 | 42.1 | 30.0 | 55.0 | 28 | 0.0 | — | 17.8 | — | 29.89 | — | 1 |
| 2009 | 2009-03-05 | 50.9 | 39.9 | 61.0 | 25 | 0.0 | — | 21.8 | — | 29.89 | — | 0 |
| 2010 | 2010-03-05 | 39.6 | 25.0 | 55.9 | 48 | 0.0 | — | 6.5 | — | 29.96 | — | 0 |
| 2011 | 2011-03-05 | 43.3 | 24.1 | 64.0 | 35 | 0.0 | — | 5.1 | — | 30.18 | — | 0 |
| 2012 | 2012-03-05 | 48.9 | 30.0 | 68.0 | 30 | 0.0 | — | 7.2 | — | 30.05 | — | 0 |
| 2013 | 2013-03-05 | 46.8 | 30.9 | 63.0 | 49 | 0.0 | — | 9.2 | — | 30.05 | — | 0 |
| 2014 | 2014-03-05 | 48.2 | 34.0 | 64.9 | 47 | 0.0 | — | 5.5 | — | 30.04 | — | 0 |
| 2015 | 2015-03-05 | 40.6 | 23.0 | 59.0 | 41 | 0.0 | — | 7.9 | — | 30.26 | — | 0 |
| 2016 | 2016-03-05 | 52.5 | 37.9 | 66.0 | 33 | — | — | 13.1 | — | 29.93 | — | — |
| 2017 | 2017-03-05 | 49.3 | 43.0 | 55.0 | 40 | 0.0 | — | 26.5 | — | 29.80 | — | 0 |
| 2018 | 2018-03-05 | 38.1 | 21.9 | 54.0 | 28 | 0.0 | — | 6.4 | — | 30.13 | — | 0 |
| 2019 | 2019-03-05 | 48.7 | 30.9 | 66.9 | 49 | 0.0 | — | 9.4 | — | 30.01 | — | 0 |
| 2020 | 2020-03-05 | 49.5 | 33.1 | 66.9 | 44 | 0.0 | — | 9.2 | — | 30.16 | — | 0 |
| 2021 | 2021-03-05 | 46.8 | 28.0 | 66.9 | 49 | 0.0 | — | 9.0 | — | 30.15 | — | 0 |
| 2022 | 2022-03-05 | 39.0 | 32.0 | 44.1 | 68 | — | — | 21.0 | — | 29.86 | — | — |
| 2023 | 2023-03-05 | 45.0 | 37.0 | 55.0 | 46 | 0.0 | — | 15.7 | — | 29.90 | — | 0 |
| 2024 | 2024-03-05 | 45.5 | 32.0 | 59.0 | 49 | 0.0 | — | 10.5 | — | 29.93 | — | 0 |
| 2025 | 2025-03-05 | 46.8 | 30.9 | 61.0 | 35 | 0.0 | — | 11.6 | — | 29.91 | — | 1 |